Temp
62 62 62 62 61 61 61 61 61 60 60 60 60 60 60 60 60 60 61 61 60 60 60 61 62 62 73 80 84 91 79 80 87 92 90 89 87 89 84 88 89 86 89 92 94 94 93
62 62 62 61 61 61 61 61 60 60 60 60 60 60 60 60 60 60 60 60 60 60 60 61 62 62 77 74 91 92 90 89 91 92 92 93 90 93 88 88 87 90 90 92 94 94 93
62 61 61 61 61 61 61 61 61 60 60 60 60 59 59 59 59 59 59 59 59 60 61 62 63 71 77 82 92 93 91 91 93 94 91 95 95 90 92 86 93 90 85 91 93 94 92
61 61 61 61 61 61 60 60 60 60 59 59 59 59 59 59 59 59 59 58 59 61 63 64 63 77 78 90 93 89 94 91 93 95 93 96 95 92 89 92 89 86 88 82 93 93 93
61 61 61 61 61 60 60 60 60 59 59 59 59 59 58 58 58 58 58 58 60 64 64 64 74 77 78 82 86 92 93 90 92 92 93 93 92 88 89 82 82 85 80 82 86 93 90
61 61 61 61 61 60 60 60 59 59 59 59 58 58 58 58 58 57 57 59 63 64 70 76 78 72 83 80 86 89 93 91 88 88 85 86 86 82 82 82 73 79 80 83 83 89 89
61 61 61 61 60 60 59 59 59 59 59 58 58 58 58 58 57 57 63 78 76 74 79 75 76 75 81 86 90 87 91 88 89 86 78 83 78 74 81 84 85 83 82 82 86 90 88
61 60 60 60 60 59 59 59 58 58 58 58 58 58 58 57 56 56 66 77 70 71 69 77 75 75 79 80 76 84 92 83 82 76 82 77 73 83 86 85 83 82 81 82 86 87 88
60 60 60 60 59 59 58 58 58 58 58 58 58 57 57 56 56 67 76 72 76 75 71 75 78 78 78 80 77 81 88 85 80 77 78 75 80 85 80 79 78 82 80 82 82 84 88
60 60 59 59 59 58 58 58 58 58 58 57 57 57 56 55 62 74 74 74 78 75 69 70 75 78 81 80 76 84 87 85 80 77 78 78 85 78 77 77 81 77 86 84 82 80 76
60 60 59 59 59 58 58 58 58 57 57 57 57 56 55 55 68 76 73 78 78 74 55 70 74 85 81 77 77 79 86 83 78 77 80 75 77 76 75 78 83 80 87 83 83 81 82
60 60 59 59 58 58 58 58 57 57 57 57 56 55 55 63 72 75 77 78 75 64 53 65 73 71 74 76 75 79 80 85 83 78 80 79 85 83 81 83 84 87 81 82 83 82 71
60 59 59 59 58 58 57 58 57 57 57 56 55 54 61 72 74 78 77 76 63 58 67 61 65 70 70 67 70 74 73 71 72 66 67 75 76 83 83 78 82 82 78 68 65 68 68
59 59 59 58 58 57 57 58 57 57 56 56 54 53 60 72 79 76 77 69 54 59 60 67 66 67 64 66 67 68 67 67 69 68 70 67 64 77 82 80 76 78 80 71 59 65 71
59 59 58 58 57 57 56 57 57 57 56 55 52 76 78 80 78 77 72 61 59 59 62 62 65 62 63 64 66 66 64 63 64 66 63 67 68 81 83 84 83 76 72 85 77 79 73
59 59 58 58 57 56 56 57 57 56 55 54 67 75 75 80 78 76 69 55 60 64 65 65 58 61 59 60 63 65 62 62 62 67 69 66 62 78 80 83 83 81 84 72 74 62 61
59 58 58 57 57 56 56 57 56 55 54 53 70 71 76 81 78 74 66 60 61 66 66 62 59 58 59 58 61 61 59 60 64 65 69 68 67 72 77 74 74 75 74 78 80 76 68
59 58 58 57 57 56 56 56 56 54 53 58 70 68 77 79 69 70 65 61 53 63 67 64 64 61 59 59 59 59 58 60 64 66 62 67 68 65 70 80 82 82 77 79 70 67 75
58 58 58 57 57 56 56 56 55 54 53 63 66 68 79 76 64 65 61 60 62 62 62 62 59 62 62 59 55 58 58 61 64 64 61 65 66 61 65 73 76 74 78 81 80 80 70
58 58 58 57 57 56 57 56 56 54 53 62 65 63 69 70 68 62 58 57 56 62 61 62 60 62 59 58 61 56 57 60 62 63 56 61 65 62 62 65 70 68 73 77 78 71 73
58 58 58 57 57 57 57 57 56 55 54 62 64 58 58 60 60 60 60 57 55 53 60 62 58 59 57 53 55 55 58 60 62 59 64 64 59 63 65 66 67 67 69 74 72 76 72
58 58 58 57 57 57 57 57 56 55 53 66 62 62 64 59 55 56 52 52 51 54 55 53 54 56 58 55 55 53 55 58 57 62 61 64 58 61 61 68 68 65 70 72 75 77 78
58 57 57 57 57 57 58 57 56 54 53 65 64 65 63 48 55 58 55 52 52 55 56 57 56 55 55 56 59 62 63 63 62 58 57 57 58 58 58 66 65 60 69 71 74 78 78
57 57 57 57 57 57 58 57 56 54 54 65 63 64 61 54 61 56 54 55 54 54 52 56 59 54 57 64 64 64 64 62 61 61 64 56 54 58 58 62 51 68 74 76 75 73 73
57 57 57 56 57 57 58 57 56 55 53 66 65 63 62 57 59 55 54 55 56 56 55 55 58 59 64 59 54 51 53 53 56 59 60 63 57 55 53 57 65 65 65 70 70 67 70
56 57 56 56 56 57 58 57 56 55 54 65 63 64 63 60 57 57 56 55 57 57 55 56 61 65 62 59 54 41 47 50 49 50 58 61 58 54 57 51 52 65 66 69 69 64 68
56 56 56 56 56 57 57 58 57 55 53 63 63 63 63 62 60 58 58 58 59 57 58 57 57 57 59 42 40 42 43 52 46 48 47 51 52 49 51 52 62 63 65 70 57 60 67
56 56 56 56 56 57 57 58 57 56 54 61 58 63 61 61 59 58 59 56 58 60 58 56 53 51 49 38 35 39 39 50 48 53 49 50 49 51 52 50 49 61 65 61 63 67 66
55 56 56 55 56 57 57 57 57 56 55 56 57 61 64 60 61 63 64 65 63 62 62 61 57 52 49 39 36 39 39 47 46 38 57 49 57 56 57 57 55 57 58 66 67 66 69
MSLP
1025.28 1024.92 1024.49 1024.07 1023.66 1023.26 1022.90 1022.48 1022.00 1021.56 1021.07 1020.52 1019.96 1019.41 1018.85 1018.33 1017.70 1017.05 1016.38 1015.77 1015.14 1014.38 1014.02 1013.80 1013.64 1013.30 1012.54 1010.07 1007.82 1008.02 1008.39 1008.63 1008.59 1008.01 1007.23 1006.77 1006.46 1005.84 1005.16 1004.64 1004.54 1004.19 1003.52 1003.39 1003.10 1003.09 1003.28
1025.29 1024.92 1024.48 1024.06 1023.59 1023.17 1022.77 1022.30 1021.91 1021.49 1020.95 1020.42 1019.88 1019.29 1018.65 1018.01 1017.39 1016.76 1016.16 1015.46 1014.77 1014.03 1013.43 1013.19 1013.19 1013.20 1011.68 1009.09 1007.86 1008.13 1008.05 1008.31 1007.75 1007.46 1006.86 1006.53 1006.05 1005.78 1005.26 1004.73 1004.29 1003.72 1003.55 1003.16 1002.90 1002.75 1003.09
1025.43 1024.99 1024.57 1024.04 1023.61 1023.15 1022.70 1022.24 1021.79 1021.36 1020.90 1020.37 1019.81 1019.14 1018.40 1017.78 1017.08 1016.34 1015.65 1014.97 1014.21 1013.49 1012.79 1012.57 1012.67 1012.34 1010.28 1008.01 1007.94 1008.03 1008.11 1007.68 1007.54 1007.15 1006.56 1006.46 1006.25 1006.01 1005.03 1004.57 1004.32 1004.03 1003.43 1002.64 1002.22 1002.18 1002.35
1025.52 1025.06 1024.58 1024.12 1023.64 1023.20 1022.70 1022.18 1021.71 1021.25 1020.69 1020.17 1019.61 1018.94 1018.17 1017.40 1016.70 1015.88 1015.15 1014.43 1013.65 1012.92 1012.41 1012.34 1012.60 1011.39 1008.46 1007.91 1007.93 1007.82 1007.57 1007.52 1007.61 1007.32 1006.94 1006.69 1006.81 1006.02 1005.47 1004.59 1004.35 1003.55 1002.89 1001.76 1000.92 1001.64 1001.99
1025.49 1025.06 1024.59 1024.14 1023.67 1023.18 1022.72 1022.16 1021.60 1021.04 1020.52 1019.94 1019.31 1018.63 1017.93 1017.14 1016.38 1015.48 1014.76 1014.01 1013.22 1012.78 1012.55 1012.61 1011.91 1010.34 1007.52 1008.08 1007.41 1007.05 1007.04 1006.66 1006.88 1007.14 1007.16 1007.08 1006.92 1005.77 1005.33 1004.64 1003.50 1002.77 1001.20 1000.95 1000.69 1001.43 1001.67
1025.46 1025.02 1024.56 1024.05 1023.52 1023.09 1022.66 1022.14 1021.45 1020.85 1020.22 1019.60 1018.94 1018.26 1017.52 1016.93 1016.14 1015.25 1014.41 1013.51 1013.12 1012.88 1012.42 1011.85 1011.10 1009.97 1007.58 1007.09 1007.22 1007.11 1006.80 1006.82 1006.47 1006.75 1007.08 1006.66 1006.19 1005.40 1004.78 1003.66 1001.81 1001.39 1001.20 1000.58 1000.31 1001.03 1001.55
1025.34 1024.86 1024.39 1023.98 1023.51 1022.98 1022.34 1021.87 1021.40 1020.72 1019.94 1019.22 1018.55 1017.83 1017.05 1016.44 1015.73 1015.00 1013.70 1012.41 1012.29 1011.65 1010.18 1009.66 1009.21 1008.49 1007.39 1007.41 1007.30 1006.49 1006.39 1006.43 1006.12 1005.92 1005.55 1005.82 1005.08 1004.06 1003.39 1003.18 1002.38 1001.82 1001.17 1000.62 1000.38 1000.91 1001.02
1025.23 1024.80 1024.31 1023.84 1023.35 1022.84 1022.26 1021.66 1021.02 1020.51 1019.81 1019.19 1018.53 1017.72 1016.88 1016.18 1015.44 1014.40 1013.92 1011.80 1012.75 1012.84 1010.37 1009.09 1009.01 1008.69 1008.17 1008.12 1006.81 1006.15 1006.12 1005.65 1005.42 1004.90 1004.83 1005.16 1003.90 1003.35 1003.38 1003.24 1002.85 1002.25 1001.45 1000.75 1000.87 1001.36 1001.09
1025.11 1024.68 1024.19 1023.71 1023.17 1022.60 1022.06 1021.43 1020.87 1020.32 1019.63 1018.78 1018.17 1017.43 1016.61 1015.86 1015.16 1014.01 1012.75 1012.91 1013.08 1012.66 1010.25 1008.38 1008.05 1007.63 1007.59 1007.82 1006.34 1005.63 1005.72 1005.11 1004.76 1004.38 1004.20 1003.82 1002.97 1003.20 1003.72 1003.35 1002.83 1002.04 1001.34 1000.71 1000.94 1001.34 1001.28
1024.91 1024.45 1024.06 1023.55 1022.98 1022.43 1021.91 1021.30 1020.70 1020.07 1019.35 1018.59 1017.84 1017.26 1016.59 1015.72 1015.02 1013.76 1012.72 1013.18 1012.82 1012.65 1009.35 1007.87 1007.16 1007.35 1007.29 1007.28 1006.13 1006.23 1005.73 1004.93 1004.49 1003.91 1004.09 1003.66 1003.11 1003.62 1003.63 1003.03 1002.82 1001.46 1001.67 1001.31 1001.38 1001.15 1000.35
1024.69 1024.29 1023.87 1023.35 1022.81 1022.28 1021.79 1021.20 1020.51 1019.82 1019.08 1018.28 1017.55 1016.90 1016.32 1015.98 1014.49 1012.96 1013.29 1012.94 1012.64 1012.20 1008.38 1008.13 1007.04 1007.51 1007.13 1006.54 1006.24 1005.90 1006.06 1005.27 1003.98 1003.96 1003.84 1003.27 1003.41 1003.45 1003.12 1002.61 1002.62 1001.47 1001.59 1001.98 1001.52 1000.95 1000.07
1024.41 1024.02 1023.62 1023.11 1022.59 1022.13 1021.66 1020.98 1020.32 1019.55 1018.81 1017.91 1017.07 1016.36 1015.62 1015.16 1014.15 1013.29 1013.23 1012.77 1012.34 1010.11 1007.70 1007.69 1007.40 1007.04 1006.34 1006.35 1006.24 1005.99 1005.64 1005.61 1005.16 1004.39 1004.21 1003.41 1003.43 1003.17 1002.77 1002.76 1002.63 1002.29 1002.32 1001.99 1001.73 1000.94 1000.15
1024.11 1023.78 1023.37 1022.96 1022.53 1021.93 1021.35 1020.83 1020.13 1019.29 1018.49 1017.61 1016.88 1016.10 1015.36 1014.53 1013.16 1013.12 1012.90 1011.67 1009.85 1008.16 1008.73 1008.28 1007.70 1007.41 1006.90 1006.79 1006.54 1006.15 1005.83 1005.89 1005.19 1005.03 1004.07 1003.75 1003.44 1003.22 1003.15 1002.60 1002.82 1002.23 1001.69 1001.03 1000.70 999.94 999.09
1023.76 1023.51 1023.08 1022.68 1022.17 1021.69 1021.08 1020.49 1019.91 1019.08 1018.35 1017.43 1016.67 1016.13 1015.36 1014.41 1013.51 1013.19 1011.98 1010.43 1008.84 1009.17 1008.81 1009.03 1008.54 1007.89 1007.41 1007.71 1007.52 1007.23 1006.90 1006.80 1007.45 1006.46 1004.43 1003.46 1002.99 1002.83 1002.73 1001.99 1001.69 1001.66 1000.73 999.32 998.76 998.55 998.76
1023.47 1023.14 1022.82 1022.44 1022.01 1021.42 1020.80 1020.12 1019.67 1019.00 1018.19 1017.22 1016.06 1014.64 1013.67 1013.41 1013.39 1012.97 1011.13 1009.39 1009.28 1009.79 1010.00 1009.35 1008.78 1007.99 1007.84 1008.24 1008.00 1007.80 1008.43 1008.48 1008.91 1008.34 1006.50 1004.16 1003.00 1002.41 1002.38 1002.13 1001.69 1001.38 1000.78 1000.02 998.82 998.24 997.99
1023.28 1023.02 1022.60 1022.28 1021.92 1021.48 1020.82 1020.12 1019.46 1018.74 1017.90 1017.14 1015.54 1013.82 1013.15 1013.30 1013.18 1012.09 1010.29 1010.13 1010.76 1011.08 1010.72 1010.07 1009.02 1009.25 1008.38 1008.73 1008.19 1008.10 1008.90 1010.49 1009.88 1009.52 1008.65 1006.81 1004.56 1002.64 1002.49 1002.46 1001.91 1000.99 1001.25 1000.58 999.82 998.61 997.79
1023.10 1022.83 1022.55 1022.20 1021.79 1021.36 1020.83 1020.06 1019.38 1018.62 1017.69 1016.85 1015.24 1012.91 1013.13 1012.97 1012.69 1010.93 1009.95 1011.04 1011.59 1011.86 1011.55 1010.79 1010.26 1009.91 1009.91 1009.59 1009.40 1009.33 1009.99 1011.46 1011.27 1010.32 1009.39 1007.91 1005.92 1002.76 1002.72 1001.92 1001.10 1001.66 1001.02 1000.22 999.78 999.13 997.59
1022.83 1022.71 1022.42 1022.04 1021.64 1021.22 1020.61 1020.10 1019.47 1018.70 1017.64 1016.25 1014.67 1012.30 1013.16 1012.82 1011.39 1011.48 1011.11 1012.10 1013.24 1012.26 1012.11 1011.71 1011.47 1011.01 1010.76 1010.70 1010.30 1010.34 1010.70 1011.46 1012.29 1011.28 1009.64 1008.90 1006.60 1003.78 1002.46 1002.01 1001.66 1000.77 1000.72 1000.21 999.27 999.03 998.62
1022.60 1022.37 1022.28 1022.03 1021.66 1021.26 1020.65 1019.99 1019.56 1019.06 1018.69 1017.37 1014.84 1013.66 1013.19 1012.63 1011.17 1011.56 1012.64 1012.70 1012.95 1012.64 1012.63 1012.35 1012.14 1012.10 1012.02 1011.57 1011.42 1011.58 1011.98 1012.93 1012.73 1011.91 1011.28 1010.04 1007.15 1004.85 1003.20 1002.82 1002.59 1001.61 1000.97 1000.36 1000.21 999.39 998.70
1022.22 1022.11 1022.04 1021.87 1021.60 1021.14 1020.64 1020.15 1019.59 1019.20 1018.84 1018.13 1015.53 1013.43 1013.34 1013.25 1013.69 1012.94 1012.97 1013.21 1013.32 1013.82 1013.58 1013.37 1013.09 1013.00 1012.67 1012.38 1012.47 1012.37 1012.41 1013.02 1013.19 1012.75 1012.64 1011.52 1008.08 1006.11 1003.94 1003.05 1002.84 1001.98 1001.42 1000.93 1000.22 999.25 998.84
1021.85 1021.73 1021.59 1021.48 1021.29 1020.96 1020.49 1020.12 1019.72 1019.23 1018.84 1018.28 1016.19 1015.33 1015.52 1013.84 1014.09 1014.10 1014.10 1014.26 1013.94 1014.08 1014.41 1014.19 1013.78 1013.47 1013.20 1012.98 1013.03 1012.91 1013.17 1012.95 1013.01 1013.24 1012.17 1011.14 1008.67 1007.25 1005.93 1005.18 1004.46 1003.49 1002.39 1001.52 1000.85 1000.27 999.12
1021.59 1021.48 1021.47 1021.28 1021.01 1020.76 1020.42 1020.02 1019.72 1019.25 1018.67 1017.41 1016.31 1015.72 1016.07 1015.57 1015.64 1015.01 1015.41 1015.26 1015.11 1015.26 1015.30 1014.84 1014.56 1014.74 1014.34 1013.86 1013.94 1013.63 1013.87 1013.54 1013.15 1013.03 1012.28 1011.40 1009.55 1008.30 1006.42 1005.24 1004.43 1003.59 1002.91 1002.32 1001.35 1000.84 1000.31
1021.29 1021.28 1021.04 1020.91 1020.81 1020.57 1020.32 1020.07 1019.80 1019.37 1018.78 1017.50 1017.70 1017.38 1015.93 1016.42 1015.72 1015.14 1015.61 1015.88 1016.02 1016.03 1016.31 1016.20 1015.88 1015.49 1015.16 1015.25 1015.62 1015.14 1014.82 1014.52 1014.14 1013.77 1012.82 1011.94 1010.49 1008.72 1006.15 1005.19 1004.78 1003.60 1002.60 1002.26 1001.77 1001.68 1001.57
1020.70 1020.97 1020.87 1020.59 1020.53 1020.37 1020.16 1019.98 1019.88 1019.60 1019.28 1018.29 1018.19 1017.46 1015.94 1015.78 1015.55 1015.84 1016.32 1016.30 1016.40 1016.62 1016.52 1016.70 1016.55 1016.35 1016.87 1016.77 1016.25 1015.54 1014.98 1014.55 1014.35 1013.95 1013.55 1012.52 1011.54 1009.87 1007.02 1005.87 1004.60 1003.21 1003.48 1002.84 1002.51 1003.22 1003.68
1020.41 1020.49 1020.54 1020.49 1020.28 1020.11 1020.02 1019.97 1019.97 1019.89 1019.61 1018.64 1018.75 1017.92 1016.65 1015.76 1015.97 1016.55 1016.72 1016.52 1016.72 1016.96 1016.99 1017.08 1017.10 1017.58 1017.37 1016.91 1015.92 1014.74 1014.01 1014.10 1013.51 1013.69 1013.47 1013.10 1012.17 1010.05 1008.17 1006.10 1004.35 1004.69 1004.94 1004.16 1003.80 1004.58 1005.30
1019.93 1020.16 1020.28 1020.16 1020.15 1020.06 1020.02 1019.91 1019.98 1020.06 1019.96 1019.23 1019.12 1019.05 1017.70 1016.22 1016.50 1016.82 1017.01 1017.29 1016.66 1016.53 1016.77 1017.10 1017.75 1017.88 1017.57 1016.75 1016.25 1015.57 1013.62 1013.02 1012.99 1013.69 1013.94 1013.14 1012.99 1011.63 1008.75 1007.20 1004.99 1004.93 1006.36 1006.74 1006.47 1005.36 1006.49
1019.63 1019.73 1019.83 1019.91 1019.83 1019.82 1019.94 1019.95 1020.00 1020.13 1020.20 1019.66 1019.44 1019.61 1018.37 1016.96 1017.56 1017.66 1017.09 1017.02 1017.32 1016.99 1016.60 1017.35 1017.53 1017.61 1018.28 1018.67 1018.10 1017.15 1015.61 1014.70 1013.44 1012.81 1013.24 1013.01 1012.55 1011.52 1010.35 1008.63 1006.88 1007.88 1007.88 1007.57 1007.08 1007.46 1007.57
1019.29 1019.44 1019.64 1019.70 1019.72 1019.66 1019.81 1019.85 1019.96 1020.17 1020.35 1019.76 1020.16 1019.96 1019.09 1017.77 1017.98 1018.22 1018.10 1017.76 1017.59 1017.17 1016.38 1017.37 1017.74 1018.26 1018.72 1019.40 1019.72 1018.80 1017.47 1015.28 1014.73 1013.38 1012.93 1012.52 1011.85 1010.79 1010.93 1010.05 1009.85 1010.37 1008.99 1008.34 1008.49 1008.32 1008.50
1019.10 1019.29 1019.32 1019.43 1019.52 1019.58 1019.75 1019.88 1019.96 1020.19 1020.41 1020.29 1019.97 1020.36 1019.94 1018.70 1018.00 1018.66 1018.42 1018.35 1018.03 1017.79 1017.37 1017.38 1017.38 1018.22 1019.46 1020.55 1020.94 1020.30 1018.94 1017.46 1015.90 1014.59 1013.79 1012.84 1011.67 1010.49 1010.62 1010.82 1012.40 1012.40 1011.47 1010.61 1009.87 1009.02 1008.74
Wind_Speed
16 17 17 18 17 18 19 19 19 19 20 20 21 21 21 21 22 23 24 24 24 24 21 18 14 11 9 7 5 8 6 10 19 14 17 16 15 13 11 7 8 12 8 6 7 6 3
16 16 17 17 18 18 18 18 18 19 20 20 21 22 23 23 23 23 24 23 23 23 22 18 11 7 8 10 6 7 6 12 13 15 17 16 11 11 8 9 9 2 7 11 10 7 5
17 17 17 17 18 18 18 19 19 19 20 21 21 21 22 24 24 25 24 25 24 22 18 11 7 8 7 10 2 2 2 5 6 15 13 13 6 12 6 8 11 9 11 10 11 10 7
17 17 17 18 18 18 19 19 19 19 19 20 21 21 22 23 25 26 25 25 24 15 7 3 10 7 6 4 5 7 9 8 5 11 5 11 7 13 8 4 9 11 14 13 10 7 6
16 16 17 18 18 18 19 20 20 20 20 19 20 21 22 23 25 26 24 23 15 2 7 11 8 6 2 4 6 4 4 9 10 10 9 5 13 10 11 13 12 11 12 15 9 7 5
16 17 18 19 19 19 19 20 20 19 18 19 19 20 22 23 25 26 26 16 7 10 8 6 4 7 5 3 3 6 4 6 12 13 14 9 10 11 13 14 14 15 15 8 12 11 10
16 17 18 19 20 20 19 19 19 19 19 19 19 20 20 23 25 25 18 6 7 8 6 7 7 7 7 8 11 7 5 11 10 17 15 15 13 16 17 18 17 8 9 14 6 4 12
17 18 18 18 19 18 18 18 19 19 20 20 20 20 20 22 23 24 11 4 6 6 6 2 4 6 7 5 5 9 8 12 13 17 16 10 17 16 14 16 18 14 14 13 7 3 10
16 16 17 17 18 18 18 18 19 20 21 21 21 21 21 22 22 10 6 7 6 5 7 2 1 4 4 5 1 8 11 8 15 19 17 16 5 15 9 15 18 19 16 12 12 6 9
16 16 17 17 18 18 18 18 19 20 21 22 21 21 20 22 9 3 3 3 9 5 7 5 4 4 2 4 3 1 3 6 8 17 16 18 10 5 14 17 18 19 17 9 9 11 14
16 15 16 17 18 18 19 20 19 20 21 21 22 21 18 10 6 2 6 8 5 6 8 6 4 1 2 5 3 5 1 7 11 12 12 13 12 15 15 13 17 15 16 16 13 12 9
14 14 15 16 17 18 19 20 20 20 21 23 23 22 14 5 4 4 7 7 6 8 4 4 1 4 6 5 3 1 4 3 4 7 12 18 8 13 15 13 11 14 10 13 11 13 13
13 13 14 15 17 18 19 20 20 21 22 23 23 20 8 2 6 8 7 5 7 6 4 4 2 4 2 5 5 4 6 5 5 13 14 15 11 11 9 16 16 15 18 10 12 14 12
12 13 13 14 15 17 18 21 21 20 22 23 23 13 4 5 8 7 6 7 7 5 4 1 3 1 2 5 5 4 5 9 10 7 9 14 17 19 11 18 14 20 20 13 20 15 14
12 11 13 13 15 16 17 18 20 20 22 24 23 4 3 7 6 6 8 8 7 2 2 4 3 4 4 4 3 5 9 6 7 8 7 8 19 12 17 12 15 17 22 18 15 9 12
12 11 12 13 14 16 17 17 20 20 21 21 5 3 5 10 6 8 6 5 2 2 2 3 2 4 3 3 5 4 4 7 3 6 4 5 9 14 15 16 15 17 14 18 10 17 16
11 11 12 13 14 15 17 16 18 20 22 17 5 4 7 8 5 6 1 5 4 4 2 5 1 2 1 1 3 2 4 7 8 7 4 5 7 15 11 18 17 12 13 18 17 15 11
11 11 12 11 13 13 15 15 16 17 24 7 4 3 6 5 4 1 3 3 1 2 1 1 1 3 2 3 1 3 5 6 9 9 3 5 8 9 21 8 11 14 19 19 13 17 15
11 10 11 11 13 13 14 13 14 13 13 7 4 3 4 6 2 3 5 5 2 1 2 1 2 3 1 2 2 1 2 3 7 7 9 9 5 10 11 11 7 15 13 17 19 17 18
9 11 10 11 12 13 13 13 12 12 12 6 5 2 4 4 2 3 2 2 5 3 3 2 3 1 3 2 1 2 3 3 4 6 6 6 7 10 7 4 7 10 16 15 18 13 14
10 9 9 10 11 12 12 12 11 12 11 5 3 4 4 2 5 3 2 0 3 3 1 3 4 5 3 4 2 1 1 3 4 2 3 6 8 5 8 7 8 7 10 16 20 18 17
11 8 9 10 10 11 10 10 10 12 14 3 3 2 2 4 2 3 3 4 1 3 2 1 4 3 3 3 5 1 3 1 3 4 4 3 7 8 13 10 10 10 12 14 16 19 18
9 7 7 8 9 10 9 10 9 11 10 2 2 1 6 3 4 3 4 3 4 2 3 4 4 6 7 8 7 7 7 8 8 7 6 6 6 7 13 7 7 12 16 14 15 14 14
7 7 7 6 7 8 7 7 6 9 10 3 3 3 5 5 2 5 6 5 7 5 2 2 2 3 5 8 9 10 11 11 11 11 9 7 6 6 8 5 13 6 5 7 11 5 4
7 6 6 6 5 6 5 4 3 6 7 2 2 4 4 4 6 7 6 4 5 5 3 1 3 5 6 5 9 8 8 7 11 14 12 10 9 6 7 12 6 8 4 2 9 11 3
7 6 6 5 5 5 4 0 3 3 4 2 4 4 3 2 4 4 4 2 1 3 7 3 3 2 5 5 4 6 5 6 5 7 6 11 9 9 8 13 17 9 8 2 3 9 5
6 8 5 5 4 4 2 2 4 5 2 4 3 5 3 0 5 4 2 2 1 1 2 1 1 2 4 2 3 4 7 5 6 11 7 11 10 14 11 9 3 8 3 5 11 6 6
8 6 6 5 4 4 1 4 6 7 3 4 2 4 6 3 6 5 3 3 5 2 2 5 4 3 1 4 3 5 5 3 7 10 8 11 10 9 11 13 14 13 3 8 8 5 5
7 7 6 6 5 5 4 5 6 8 5 5 3 2 3 5 6 1 4 6 5 4 4 3 7 4 2 2 1 3 4 3 8 4 12 11 12 7 9 7 7 7 8 3 2 4 6
Wind_Direction
6 4 2 359 357 357 355 352 349 347 345 342 340 337 334 331 327 325 323 320 317 313 311 309 306 302 278 238 263 37 113 155 171 196 196 190 191 207 227 231 222 238 257 261 257 260 301
2 359 356 354 352 350 349 348 347 344 342 339 338 334 331 328 325 323 321 317 314 308 305 300 284 253 246 251 92 71 90 167 185 199 199 200 207 215 259 236 242 63 249 261 266 245 197
357 354 352 349 348 347 345 344 345 343 339 337 336 332 328 327 325 322 321 320 315 308 301 291 222 231 240 258 58 241 192 189 210 206 208 208 218 204 223 230 241 263 266 251 236 225 210
351 349 345 344 343 343 342 342 341 340 337 336 333 330 327 325 322 321 322 322 316 310 306 187 180 226 262 124 299 240 219 215 202 213 230 214 223 239 239 299 225 234 231 244 200 200 196
344 342 341 341 341 340 340 341 340 339 338 334 331 330 325 325 322 321 322 319 309 87 127 146 208 256 239 145 218 107 212 223 188 194 199 188 216 228 193 234 218 212 232 212 184 204 154
339 339 340 340 340 342 341 340 338 337 332 328 328 326 326 323 323 321 323 308 145 162 188 238 261 231 211 101 350 316 248 214 173 169 177 188 196 212 222 219 222 204 219 205 217 173 194
337 338 338 340 341 341 338 337 337 332 325 324 325 325 326 325 324 322 319 203 215 180 215 321 331 306 294 322 273 203 155 179 192 184 190 196 209 212 211 219 240 300 232 222 191 143 207
335 335 336 337 338 336 336 335 331 327 325 328 325 325 324 324 324 318 282 29 44 346 301 207 286 270 288 309 259 209 187 187 191 197 207 182 225 218 226 217 229 223 227 224 149 203 225
330 330 329 332 335 334 334 333 333 331 327 325 325 327 328 326 318 288 28 67 346 285 259 124 277 347 20 249 218 147 218 205 203 208 199 218 206 226 199 222 219 224 228 216 226 176 214
326 326 331 333 334 332 333 336 334 332 326 324 323 326 327 324 290 358 109 355 315 252 247 103 138 93 245 274 155 13 261 250 199 220 205 229 191 215 201 217 216 216 215 238 198 207 209
322 327 331 330 331 333 335 339 334 331 327 323 323 327 325 314 339 247 20 318 304 231 214 64 69 39 294 296 18 81 243 223 214 205 213 210 226 210 213 211 205 230 170 214 219 218 239
320 324 328 328 331 333 332 341 334 332 329 325 327 330 328 183 211 342 312 311 222 228 130 133 35 341 204 46 79 130 167 212 338 243 211 251 194 232 218 218 205 224 186 205 216 228 215
315 322 326 329 331 332 333 340 334 332 329 328 330 330 303 280 5 332 308 219 231 269 144 84 356 356 64 39 72 100 125 121 224 210 215 210 213 211 239 203 204 205 196 186 206 211 224
314 321 324 329 330 331 331 340 332 332 329 328 327 318 147 313 309 306 258 235 256 56 45 70 331 214 65 343 92 128 151 120 48 299 269 210 201 213 190 226 194 214 220 226 208 213 213
314 320 325 328 329 330 328 337 331 335 332 330 311 197 245 5 326 288 258 237 28 45 345 331 210 246 140 116 307 157 78 69 35 3 265 252 229 174 208 215 238 197 225 241 268 241 258
319 321 324 327 329 329 329 335 332 339 332 332 307 246 50 339 307 267 252 41 107 21 315 268 300 312 219 43 203 204 120 27 20 20 309 55 259 176 201 226 220 253 203 219 232 238 217
318 322 322 326 330 330 330 331 338 340 334 329 248 229 37 342 270 247 328 56 116 61 290 324 141 167 71 48 13 112 73 89 20 359 310 330 239 187 193 209 200 195 230 222 221 236 229
314 322 319 323 326 328 330 331 340 345 337 303 294 233 20 319 239 309 91 23 251 115 108 102 350 19 16 14 54 120 114 41 5 334 335 19 296 254 205 215 250 235 215 215 226 211 240
309 314 316 325 327 329 325 332 341 348 0 315 346 356 38 296 283 118 131 124 38 231 1 199 144 315 15 47 225 82 100 74 7 354 2 358 207 226 229 180 197 226 225 224 225 243 203
298 307 316 324 328 327 326 334 343 346 346 294 283 241 106 62 17 331 189 139 147 43 78 338 95 228 215 214 12 124 129 92 357 0 335 276 266 271 269 4 355 200 227 219 239 221 226
286 299 309 322 327 326 324 337 344 343 341 283 332 65 2 52 76 69 250 353 206 139 26 284 191 260 248 221 239 212 312 315 126 44 291 302 268 264 275 277 252 250 252 210 225 237 239
290 296 311 321 324 323 325 338 348 345 330 276 319 270 157 86 147 192 167 88 86 132 337 219 305 319 272 284 337 70 326 8 1 327 307 300 268 290 269 243 246 241 228 229 231 227 236
290 291 297 311 316 320 327 342 356 354 324 5 79 109 282 154 150 213 63 101 102 213 75 44 321 253 241 52 336 329 306 296 298 300 308 287 307 265 250 171 246 241 226 221 219 218 229
256 267 287 300 305 315 326 354 4 14 355 348 38 289 261 111 218 104 141 142 109 73 99 108 320 321 33 314 290 257 256 255 256 256 252 279 267 270 278 185 225 87 32 263 216 153 242
243 254 271 290 291 298 324 2 33 31 1 11 49 297 296 120 112 151 177 147 154 155 178 260 106 13 323 279 272 250 199 221 224 232 239 236 278 259 244 220 178 157 82 187 185 156 40
220 247 261 269 285 287 318 15 125 93 14 306 57 311 304 203 114 79 173 3 148 158 162 153 139 311 285 283 265 269 286 21 196 158 256 241 236 262 213 245 229 89 115 126 247 200 37
212 239 243 251 261 260 291 192 149 136 25 291 78 352 288 305 132 177 180 120 148 207 78 168 18 215 276 34 281 260 239 236 259 222 172 193 210 228 229 252 191 41 346 187 219 83 24
217 227 232 229 243 238 225 181 158 149 124 306 80 6 314 308 133 199 177 179 159 242 337 108 204 202 146 207 201 225 253 268 270 263 178 206 213 199 233 229 242 5 211 260 42 68 42
223 218 218 216 227 210 180 170 162 159 143 280 129 306 309 281 46 214 249 262 278 353 324 179 341 347 61 234 267 315 256 260 283 264 195 234 228 248 216 208 38 353 350 32 320 60 55